Tyler, TX

8:40 AM CDT on June 19, 2018 (GMT -0500)
Tyler Pounds

Weather History for KTYR - September, 2012

Change the Weather History Date:

Sunday, September 9, 2012

  Actual Average Record
Temperature  
Mean Temperature 73 °F 78 °F  
Max Temperature 89 °F 88 °F 103 °F (1938)
Min Temperature 56 °F 69 °F 52 °F (1979)
Degree Days  
Heating Degree Days 0 0  
Month to date heating degree days 0 0  
Since 1 July heating degree days 0 0  
Cooling Degree Days 8 13  
Month to date cooling degree days 181 131  
Year to date cooling degree days 2594 2053  
Growing Degree Days 22 (Base 50)    
Moisture  
Dew Point 47 °F    
Average Humidity 48    
Maximum Humidity 77    
Minimum Humidity 18    
Precipitation  
Precipitation 0.00 in 0.12 in 2.85 in (2008)
Month to date precipitation T 1.09  
Year to date precipitation 24.04 30.35  
Snow  
Snow 0.00 in - - ()
Month to date snowfall 0.0  
Since 1 July snowfall 0.0  
Since 1 September snowfall 0.0  
Snow Depth 0.00 in    
Sea Level Pressure  
Sea Level Pressure 30.08 in    
Wind  
Wind Speed 3 mph (North)    
Max Wind Speed 15 mph    
Max Gust Speed 23 mph    
Visibility 10 miles    
Events      
T = Trace of Precipitation, MM = Missing Value Source: NWS Daily Summary

Daily Weather History Graph

Daily Weather History Graph

Search for Another Location

Airport or City:

Astronomy

Sep. 09, 2012 Rise Set
Actual Time 7:01 AM CDT 7:34 PM CDT
Civil Twilight 6:37 AM CDT 7:59 PM CDT
Nautical Twilight 6:08 AM CDT 8:28 PM CDT
Astronomical Twilight 5:38 AM CDT 8:58 PM CDT
Moon 12:47 AM CDT (9/9) 3:06 PM CDT (9/9)
Length of Visible Light 13h 22m
Length of Day
12h 32m
Last Quarter, 39% of the Moon is Illuminated
Sep 9
Last Quarter
Sep 15
New
Sep 22
First Quarter
Sep 29
Full
Oct 8
Last Quarter

Hourly Weather History & Observations

Time (CDT) Temp. Dew Point Humidity Pressure Visibility Wind Dir Wind Speed Gust Speed Precip Events Conditions
12:53 AM 66.9 °F 50.0 °F 54% 30.06 in 10.0 mi North 4.6 mph - N/A   Clear
1:53 AM 64.9 °F 48.9 °F 56% 30.06 in 10.0 mi Calm Calm - N/A   Clear
2:53 AM 64.9 °F 48.0 °F 54% 30.06 in 10.0 mi North 3.5 mph - N/A   Clear
3:53 AM 63.0 °F 48.9 °F 60% 30.07 in 10.0 mi Calm Calm - N/A   Clear
4:53 AM 61.0 °F 48.9 °F 64% 30.07 in 10.0 mi Calm Calm - N/A   Clear
5:53 AM 59.0 °F 48.9 °F 69% 30.08 in 10.0 mi Calm Calm - N/A   Clear
6:53 AM 55.9 °F 48.9 °F 77% 30.09 in 10.0 mi NW 4.6 mph - N/A   Clear
7:53 AM 60.1 °F 50.0 °F 69% 30.12 in 10.0 mi NNW 3.5 mph - N/A   Clear
8:53 AM 68.0 °F 50.0 °F 52% 30.13 in 10.0 mi North 4.6 mph - N/A   Clear
9:53 AM 73.9 °F 50.0 °F 43% 30.14 in 10.0 mi NNE 5.8 mph - N/A   Clear
10:53 AM 77.0 °F 48.9 °F 37% 30.15 in 10.0 mi North 3.5 mph - N/A   Clear
11:53 AM 82.0 °F 46.0 °F 28% 30.14 in 10.0 mi North 8.1 mph - N/A   Clear
12:53 PM 82.9 °F 46.0 °F 27% 30.12 in 10.0 mi North 8.1 mph 16.1 mph N/A   Clear
1:53 PM 84.0 °F 45.0 °F 25% 30.09 in 10.0 mi Variable 5.8 mph - N/A   Clear
2:53 PM 87.1 °F 43.0 °F 21% 30.07 in 10.0 mi North 6.9 mph - N/A   Clear
3:53 PM 87.8 °F 39.2 °F 18% 30.07 in 10.0 mi NNE 5.8 mph 17.3 mph N/A   Clear
4:53 PM 88.0 °F 39.9 °F 18% 30.05 in 10.0 mi North 8.1 mph - N/A   Clear
5:53 PM 84.9 °F 42.1 °F 22% 30.04 in 10.0 mi North 3.5 mph - N/A   Clear
6:53 PM 84.9 °F 43.0 °F 23% 30.04 in 10.0 mi Calm Calm - N/A   Clear
7:53 PM 77.0 °F 48.0 °F 36% 30.04 in 10.0 mi Calm Calm - N/A   Clear
8:53 PM 75.0 °F 48.0 °F 38% 30.05 in 10.0 mi Calm Calm - N/A   Clear
9:53 PM 72.0 °F 48.9 °F 44% 30.07 in 10.0 mi Calm Calm - N/A   Clear
10:53 PM 70.0 °F 51.1 °F 51% 30.07 in 10.0 mi Calm Calm - N/A   Clear
11:53 PM 64.0 °F 51.1 °F 63% 30.07 in 10.0 mi SE 3.5 mph - N/A   Clear